Regional Weather Roundup
Issued by NWS

Home | Current Version | Previous Version | Text Only | Print | Product List | Glossary Off
Versions: 1 2 3 4 5 6 7 8 9 10 11 12 13 14 15 16 17 18 19 20 21 22 23 24 25 26 27 28 29 30 31 32 33 34 35 36 37 38 39 40 41 42 43 44 45 46 47 48 49 50

000
ASUS43 KIND 281359
RWRIN

WEATHER ROUNDUP FOR INDIANA
NATIONAL WEATHER SERVICE INDIANAPOLIS IN
1000 AM EDT TUE JUL 28 2015

NOTE: "FAIR" INDICATES FEW OR NO CLOUDS BELOW 12,000 FEET WITH NO
SIGNIFICANT WEATHER AND/OR OBSTRUCTIONS TO VISIBILITY.

* - STATION DOES NOT REPORT WEATHER SUCH AS PRECIPITATION OR FOG.

+ - STATION NOT QUALITY CONTROLLED BY THE NATIONAL WEATHER SERVICE.
    USE DATA WITH CAUTION...ESPECIALLY DEWPOINT AND RELATIVE
    HUMIDITY OBSERVATIONS.

INZ001>003-010>013-019-020-281500-
NORTHWEST INDIANA

CITY           SKY/WX    TMP DP  RH WIND       PRES   REMARKS
GARY /AIRPORT/ SUNNY     81  68  65 SE9       30.00F
MONTICELLO +   SUNNY     78  70  76 E6        30.01R
RENSSELAER +   MOSUNNY   79  72  78 E6        30.01S

$$

LMZ046-743>745-281500-
SOUTHERN LAKE MICHIGAN

STATION/POSITION TIME  TEMP    WIND        PRES    WAVE
                       AIR SEA DIR/SP/G            HT
                 (UTC) (F)     (DEG/KT/KT) (MB)    (FT)
BURNS HARBOR     1300   78     140/ 10/ 13 1016.6S
MICHIGAN CITY    1300   76     110/  9/ 11   N/A
5NW MICH CITY    1300   75 74  160/  6/  8   N/A     1

$$

INZ004-005-014>016-021>024-281500-
NORTH CENTRAL INDIANA

CITY           SKY/WX    TMP DP  RH WIND       PRES   REMARKS
ELKHART        SUNNY     77  61  57 E6        30.04F
GOSHEN         SUNNY     78  66  66 E8        30.03F
SOUTH BEND     SUNNY     80  63  55 SE7       30.03F

$$

INZ006>009-017-018-025>027-281500-
NORTHEAST INDIANA

CITY           SKY/WX    TMP DP  RH WIND       PRES   REMARKS
ANGOLA *+      SUNNY     79  66  65 SE5       30.05S
FORT WAYNE     MOSUNNY   77  66  68 NE7       30.04S

$$

INZ028-029-035-036-043>045-051>053-281500-
WEST CENTRAL INDIANA

CITY           SKY/WX    TMP DP  RH WIND       PRES   REMARKS
CRAWFORDSVL +  SUNNY     78  72  82 E5          N/A
GREENCASTLE +  SUNNY     79  72  78 SE3       30.01S
LAFAYETTE      SUNNY     78  72  81 E5        30.00R
TERRE HAUTE    SUNNY     80  74  81 S5        29.99R

$$

INZ030>032-037>040-046>048-054>057-064-065-281500-
CENTRAL INDIANA

CITY           SKY/WX    TMP DP  RH WIND       PRES   REMARKS
ANDERSON       SUNNY     77  66  69 CALM      30.03S
COLUMBUS       SUNNY     77  73  88 CALM      30.00S
GREENWOOD *+   SUNNY     79  70  73 CALM      30.01F
INDIANAPOLIS   MOSUNNY   80  72  76 SE3       30.00F
-EAGLE CREEK   SUNNY     80  73  79 CALM      30.00S
KOKOMO *+      MOSUNNY   79  70  73 E5        30.03R
MT COMFORT *+  SUNNY     81 N/A N/A S3        30.01F
SHELBYVILLE    SUNNY     82  74  76 CALM      30.00S

$$

INZ033-034-041-042-049-050-058-059-281500-
EAST CENTRAL INDIANA

CITY           SKY/WX    TMP DP  RH WIND       PRES   REMARKS
MUNCIE         SUNNY     78  70  76 E3        30.02F

$$

INZ060-061-067>069-081>083-085>088-281500-
SOUTHWEST INDIANA

CITY           SKY/WX    TMP DP  RH WIND       PRES   REMARKS
EVANSVILLE     SUNNY     81  74  79 SW6       29.99R
HUNTINGBURG *+ SUNNY     81  73  78 S5        29.99R

$$

INZ062-063-066-070>080-084-089>092-281500-
SOUTH CENTRAL AND SOUTHEAST INDIANA

CITY           SKY/WX    TMP DP  RH WIND       PRES   REMARKS
BLOOMINGTON    MOSUNNY   81  74  79 CALM      30.00R
MADISON *+     SUNNY     81  72  74 CALM      30.03R
SEYMOUR +      SUNNY     82  75  78 CALM      30.00R

$$



USA.gov is the U.S. government's official web portal to all federal, state and local government web resources and services.